TimeCST,TemperatureF,Dew PointF,Humidity,Sea Level PressureIn,VisibilityMPH,Wind Direction,Wind SpeedMPH,Gust SpeedMPH,PrecipitationIn,Events,Conditions,WindDirDegrees,DateUTC
12:15 AM,32.0,19.4,60,30.30,10.0,SSW,11.5,-,N/A,,Clear,210,2013-02-03 06:15:00
12:35 AM,32.0,19.4,60,30.30,10.0,SSW,12.7,-,N/A,,Clear,200,2013-02-03 06:35:00
12:55 AM,33.8,19.4,56,30.30,10.0,SSW,10.4,-,N/A,,Clear,200,2013-02-03 06:55:00
1:15 AM,33.8,19.4,56,30.30,10.0,SSW,10.4,-,N/A,,Clear,200,2013-02-03 07:15:00
1:35 AM,32.0,19.4,60,30.30,10.0,SSW,11.5,-,N/A,,Clear,200,2013-02-03 07:35:00
1:55 AM,33.8,19.4,56,30.29,10.0,SSW,12.7,-,N/A,,Clear,200,2013-02-03 07:55:00
2:15 AM,32.0,19.4,60,30.28,10.0,SSW,12.7,-,N/A,,Clear,200,2013-02-03 08:15:00
2:35 AM,33.8,19.4,56,30.28,10.0,SSW,11.5,-,N/A,,Clear,210,2013-02-03 08:35:00
2:55 AM,33.8,19.4,56,30.27,10.0,SW,11.5,-,N/A,,Clear,220,2013-02-03 08:55:00
3:15 AM,33.8,19.4,56,30.27,10.0,SW,10.4,-,N/A,,Clear,220,2013-02-03 09:15:00
3:35 AM,35.6,19.4,52,30.26,10.0,SW,13.8,-,N/A,,Clear,220,2013-02-03 09:35:00
3:55 AM,37.4,19.4,48,30.25,10.0,SW,13.8,-,N/A,,Clear,220,2013-02-03 09:55:00
4:15 AM,37.4,17.6,45,30.25,10.0,SW,15.0,-,N/A,,Clear,220,2013-02-03 10:15:00
4:35 AM,37.4,19.4,48,30.24,10.0,SW,13.8,-,N/A,,Clear,230,2013-02-03 10:35:00
4:55 AM,37.4,19.4,48,30.24,10.0,SW,15.0,-,N/A,,Clear,220,2013-02-03 10:55:00
5:15 AM,37.4,19.4,48,30.24,10.0,SW,15.0,-,N/A,,Clear,220,2013-02-03 11:15:00
5:35 AM,37.4,19.4,48,30.24,10.0,SW,12.7,-,N/A,,Clear,230,2013-02-03 11:35:00
5:55 AM,37.4,19.4,48,30.24,10.0,SW,11.5,-,N/A,,Clear,230,2013-02-03 11:55:00
6:15 AM,35.6,19.4,52,30.24,10.0,WSW,10.4,-,N/A,,Clear,240,2013-02-03 12:15:00
6:35 AM,33.8,19.4,56,30.24,10.0,West,8.1,-,N/A,,Clear,260,2013-02-03 12:35:00
6:55 AM,33.8,19.4,56,30.24,10.0,West,8.1,-,N/A,,Clear,270,2013-02-03 12:55:00
7:15 AM,33.8,21.2,60,30.23,10.0,WSW,10.4,-,N/A,,Clear,250,2013-02-03 13:15:00
7:35 AM,33.8,21.2,60,30.23,10.0,WSW,9.2,-,N/A,,Clear,250,2013-02-03 13:35:00
7:55 AM,33.8,21.2,60,30.23,10.0,WSW,10.4,-,N/A,,Clear,240,2013-02-03 13:55:00
8:15 AM,35.6,21.2,56,30.23,10.0,SW,13.8,-,N/A,,Clear,230,2013-02-03 14:15:00
8:35 AM,37.4,21.2,52,30.22,10.0,SW,16.1,-,N/A,,Clear,230,2013-02-03 14:35:00
8:55 AM,41.0,21.2,45,30.22,10.0,SW,15.0,-,N/A,,Clear,230,2013-02-03 14:55:00
9:15 AM,44.6,21.2,39,30.21,10.0,SW,15.0,21.9,N/A,,Clear,220,2013-02-03 15:15:00
9:35 AM,46.4,21.2,37,30.21,10.0,SW,18.4,25.3,N/A,,Clear,220,2013-02-03 15:35:00
9:55 AM,50.0,21.2,32,30.20,10.0,SW,20.7,26.5,N/A,,Clear,220,2013-02-03 15:55:00
10:15 AM,51.8,19.4,28,30.19,10.0,SW,20.7,28.8,N/A,,Clear,230,2013-02-03 16:15:00
10:35 AM,53.6,17.6,24,30.19,10.0,SW,23.0,27.6,N/A,,Clear,220,2013-02-03 16:35:00
10:55 AM,55.4,17.6,23,30.19,10.0,SW,21.9,26.5,N/A,,Clear,220,2013-02-03 16:55:00
11:15 AM,55.4,17.6,23,30.19,10.0,SW,19.6,27.6,N/A,,Clear,220,2013-02-03 17:15:00
11:35 AM,55.4,15.8,21,30.17,10.0,SW,25.3,29.9,N/A,,Clear,220,2013-02-03 17:35:00
11:55 AM,57.2,15.8,20,30.16,10.0,SSW,23.0,28.8,N/A,,Clear,210,2013-02-03 17:55:00
12:15 PM,59.0,15.8,19,30.14,10.0,SW,24.2,32.2,N/A,,Clear,220,2013-02-03 18:15:00
12:35 PM,57.2,17.6,21,30.13,10.0,SSW,27.6,34.5,N/A,,Clear,210,2013-02-03 18:35:00
12:55 PM,57.2,19.4,23,30.11,10.0,SSW,25.3,35.7,N/A,,Clear,210,2013-02-03 18:55:00
1:15 PM,59.0,17.6,20,30.09,10.0,SW,25.3,35.7,N/A,,Clear,220,2013-02-03 19:15:00
1:35 PM,59.0,17.6,20,30.07,10.0,SSW,26.5,32.2,N/A,,Clear,210,2013-02-03 19:35:00
1:55 PM,59.0,17.6,20,30.06,10.0,SSW,24.2,31.1,N/A,,Clear,210,2013-02-03 19:55:00
2:15 PM,55.4,19.4,25,30.05,10.0,SSW,25.3,34.5,N/A,,Clear,210,2013-02-03 20:15:00
2:35 PM,57.2,19.4,23,30.03,10.0,SSW,26.5,32.2,N/A,,Clear,210,2013-02-03 20:35:00
2:55 PM,59.0,19.4,22,30.01,10.0,SSW,29.9,35.7,N/A,,Clear,200,2013-02-03 20:55:00
3:15 PM,59.0,19.4,22,30.00,10.0,SSW,25.3,29.9,N/A,,Clear,200,2013-02-03 21:15:00
3:35 PM,59.0,17.6,20,29.99,10.0,SSW,25.3,34.5,N/A,,Clear,210,2013-02-03 21:35:00
4:15 PM,59.0,21.2,23,29.97,10.0,SSW,23.0,32.2,N/A,,Clear,200,2013-02-03 22:15:00
4:55 PM,57.2,23.0,27,29.96,10.0,SSW,24.2,29.9,N/A,,Clear,210,2013-02-03 22:55:00
5:35 PM,55.4,23.0,29,29.94,10.0,SSW,16.1,21.9,N/A,,Clear,210,2013-02-03 23:35:00
5:55 PM,53.6,24.8,33,29.94,10.0,SSW,16.1,-,N/A,,Clear,210,2013-02-03 23:55:00
6:15 PM,53.6,24.8,33,29.94,10.0,SSW,11.5,-,N/A,,Clear,200,2013-02-04 00:15:00
6:35 PM,51.8,26.6,38,29.93,10.0,SSW,11.5,-,N/A,,Clear,200,2013-02-04 00:35:00
6:55 PM,51.8,26.6,38,29.92,10.0,South,12.7,-,N/A,,Clear,190,2013-02-04 00:55:00
7:15 PM,51.8,28.4,41,29.92,10.0,South,12.7,-,N/A,,Clear,190,2013-02-04 01:15:00
7:35 PM,50.0,30.2,47,29.91,10.0,South,11.5,-,N/A,,Clear,190,2013-02-04 01:35:00
7:55 PM,50.0,32.0,50,29.92,10.0,SSW,8.1,-,N/A,,Clear,200,2013-02-04 01:55:00
8:15 PM,50.0,32.0,50,29.91,10.0,SSW,11.5,-,N/A,,Clear,200,2013-02-04 02:15:00
8:35 PM,50.0,32.0,50,29.91,10.0,South,9.2,-,N/A,,Scattered Clouds,190,2013-02-04 02:35:00
8:55 PM,50.0,32.0,50,29.90,10.0,South,12.7,-,N/A,,Scattered Clouds,180,2013-02-04 02:55:00
9:15 PM,50.0,32.0,50,29.89,10.0,South,15.0,-,N/A,,Scattered Clouds,180,2013-02-04 03:15:00
9:35 PM,50.0,32.0,50,29.89,10.0,South,13.8,-,N/A,,Scattered Clouds,180,2013-02-04 03:35:00
9:55 PM,48.2,32.0,54,29.88,10.0,South,13.8,-,N/A,,Clear,190,2013-02-04 03:55:00
10:15 PM,48.2,32.0,54,29.87,10.0,South,12.7,-,N/A,,Clear,180,2013-02-04 04:15:00
10:35 PM,46.4,32.0,57,29.87,10.0,South,9.2,-,N/A,,Clear,180,2013-02-04 04:35:00
10:55 PM,46.4,32.0,57,29.86,10.0,South,10.4,-,N/A,,Clear,170,2013-02-04 04:55:00
11:15 PM,48.2,33.8,58,29.86,10.0,South,10.4,-,N/A,,Scattered Clouds,180,2013-02-04 05:15:00
11:35 PM,48.2,33.8,58,29.85,10.0,South,10.4,-,N/A,,Mostly Cloudy,180,2013-02-04 05:35:00
11:55 PM,48.2,33.8,58,29.84,10.0,South,12.7,-,N/A,,Mostly Cloudy,190,2013-02-04 05:55:00